Location: Dziadowski
(50.3833°N, 20.0333°E)
Time: 02:14:16
(UTC+00:00)

Cosmos 1953 - Pass Details

Date: 18 January 2026
Orbit: 475 x 489 km, 82.5° (Epoch: 6 February)

Event Time Altitude Azimuth Distance (km) Brightness Sun altitude
Rises 04:56:06 0° 177° (S) 2,538 6.0 -14.8°
Reaches altitude 10° 04:58:13 10° 172° (S) 1,666 5.1 -14.4°
Maximum altitude 05:01:46 52° 95° (E) 612 3.0 -13.9°
Drops below altitude 10° 05:05:22 10° 19° (NNE) 1,690 4.8 -13.3°
Sets 05:07:31 0° 15° (NNE) 2,580 5.7 -13.0°
